Back to catalog

COSMOS 252 DEB *

AliveLEO
NORAD 5871·DEBRIS·🇷🇺 Russia

Launched Nov 1, 1968 from Baikonur Cosmodrome

Loading…

Next Passes (next 24 hours)

TLE

FreshSource: Space-Track

Epoch: Sep 14, 2026, 07:51 UTC

1 05871U 68097DK  26257.32721011  .00000381  00000-0  20857-3 0  9997
2 05871  62.8236 130.4138 0877853 232.2153 119.6184 13.06485458725228

Track COSMOS 252 DEB * in real time with AllMySat

Download on the App Store